QPF
0.00 0.00 0.00 0.00 0.00 0.00 0.00 0.00 0.00 0.00 0.00 0.00 0.00 0.00 0.00 0.00 0.00 0.00 0.00 0.00 0.02 0.02 0.03 0.00 0.00 0.00 0.00 0.00 0.00 0.00 0.01 0.03 0.03 0.02 0.06 0.11 0.15 0.27 0.25 0.21 0.25 0.26 0.20 0.23
0.00 0.00 0.00 0.00 0.00 0.00 0.00 0.00 0.00 0.00 0.00 0.00 0.00 0.00 0.00 0.00 0.00 0.00 0.00 0.01 0.03 0.02 0.00 0.00 0.00 0.00 0.00 0.00 0.00 0.03 0.09 0.12 0.24 0.29 0.38 0.34 0.27 0.20 0.18 0.26 0.17 0.13 0.07 0.05
0.00 0.00 0.00 0.00 0.00 0.00 0.00 0.00 0.00 0.00 0.00 0.00 0.00 0.00 0.00 0.00 0.00 0.00 0.00 0.09 0.10 0.02 0.00 0.00 0.00 0.00 0.00 0.00 0.00 0.00 0.04 0.16 0.19 0.17 0.33 0.36 0.24 0.10 0.13 0.15 0.08 0.05 0.01 0.00
0.00 0.00 0.00 0.00 0.00 0.00 0.00 0.00 0.00 0.00 0.00 0.00 0.00 0.00 0.00 0.00 0.01 0.04 0.07 0.16 0.13 0.06 0.01 0.00 0.00 0.00 0.00 0.00 0.00 0.00 0.00 0.01 0.05 0.02 0.01 0.03 0.05 0.04 0.04 0.05 0.07 0.04 0.01 0.00
0.00 0.00 0.00 0.00 0.00 0.00 0.00 0.00 0.00 0.00 0.00 0.00 0.00 0.00 0.00 0.00 0.02 0.04 0.09 0.13 0.08 0.05 0.01 0.00 0.00 0.00 0.00 0.00 0.00 0.00 0.00 0.00 0.00 0.00 0.00 0.00 0.00 0.01 0.02 0.03 0.02 0.00 0.03 0.03
0.00 0.00 0.00 0.00 0.00 0.00 0.00 0.00 0.00 0.00 0.00 0.00 0.00 0.00 0.00 0.01 0.02 0.01 0.01 0.02 0.06 0.03 0.04 0.01 0.00 0.00 0.00 0.00 0.00 0.00 0.00 0.00 0.00 0.00 0.00 0.00 0.00 0.00 0.00 0.00 0.01 0.01 0.00 0.00
0.00 0.00 0.00 0.00 0.00 0.00 0.00 0.00 0.00 0.00 0.00 0.00 0.00 0.00 0.00 0.00 0.00 0.00 0.00 0.00 0.00 0.00 0.00 0.00 0.00 0.00 0.00 0.00 0.00 0.00 0.00 0.00 0.00 0.00 0.00 0.00 0.00 0.00 0.00 0.00 0.00 0.00 0.00 0.00
0.00 0.00 0.00 0.00 0.00 0.00 0.00 0.00 0.00 0.00 0.00 0.00 0.00 0.00 0.00 0.00 0.00 0.00 0.00 0.00 0.00 0.00 0.00 0.00 0.00 0.00 0.00 0.00 0.00 0.00 0.00 0.00 0.00 0.00 0.00 0.00 0.00 0.00 0.00 0.00 0.00 0.00 0.00 0.00
0.00 0.00 0.00 0.00 0.00 0.00 0.00 0.00 0.00 0.00 0.00 0.00 0.00 0.00 0.00 0.00 0.00 0.00 0.00 0.00 0.00 0.00 0.00 0.00 0.00 0.00 0.00 0.00 0.00 0.00 0.00 0.00 0.00 0.00 0.00 0.00 0.00 0.00 0.00 0.00 0.00 0.00 0.00 0.00
0.00 0.00 0.00 0.00 0.00 0.00 0.00 0.00 0.00 0.00 0.00 0.00 0.00 0.00 0.00 0.00 0.00 0.00 0.00 0.00 0.00 0.00 0.00 0.00 0.00 0.00 0.00 0.00 0.00 0.00 0.00 0.00 0.00 0.00 0.00 0.00 0.00 0.00 0.00 0.00 0.00 0.01 0.00 0.00
0.00 0.00 0.00 0.00 0.00 0.00 0.00 0.00 0.00 0.00 0.00 0.00 0.00 0.00 0.00 0.00 0.00 0.00 0.00 0.00 0.00 0.00 0.00 0.00 0.00 0.00 0.00 0.00 0.00 0.00 0.00 0.00 0.00 0.00 0.00 0.00 0.00 0.00 0.00 0.00 0.00 0.01 0.00 0.02
0.00 0.00 0.00 0.00 0.00 0.00 0.00 0.00 0.00 0.00 0.00 0.00 0.00 0.00 0.00 0.00 0.00 0.00 0.00 0.00 0.00 0.00 0.00 0.00 0.00 0.00 0.00 0.00 0.00 0.00 0.00 0.00 0.00 0.00 0.00 0.00 0.00 0.00 0.00 0.00 0.00 0.00 0.01 0.03
0.00 0.00 0.00 0.00 0.00 0.00 0.00 0.00 0.00 0.00 0.00 0.00 0.00 0.00 0.00 0.00 0.00 0.00 0.00 0.00 0.00 0.00 0.00 0.00 0.00 0.00 0.00 0.00 0.00 0.00 0.00 0.00 0.00 0.00 0.00 0.00 0.00 0.00 0.00 0.00 0.00 0.00 0.00 0.01
0.00 0.00 0.00 0.00 0.00 0.00 0.00 0.00 0.00 0.00 0.00 0.00 0.00 0.00 0.00 0.00 0.00 0.00 0.00 0.00 0.00 0.00 0.00 0.00 0.00 0.00 0.00 0.00 0.00 0.00 0.00 0.00 0.00 0.00 0.00 0.00 0.00 0.00 0.00 0.00 0.00 0.00 0.00 0.00
0.00 0.00 0.00 0.00 0.00 0.00 0.00 0.00 0.00 0.00 0.00 0.00 0.00 0.00 0.00 0.00 0.00 0.00 0.00 0.00 0.00 0.00 0.00 0.00 0.00 0.00 0.00 0.00 0.00 0.00 0.00 0.00 0.00 0.00 0.00 0.00 0.00 0.00 0.00 0.00 0.00 0.00 0.00 0.00
0.00 0.00 0.00 0.00 0.00 0.00 0.00 0.00 0.00 0.00 0.00 0.00 0.00 0.00 0.00 0.00 0.00 0.00 0.00 0.00 0.00 0.00 0.00 0.00 0.00 0.00 0.00 0.00 0.00 0.00 0.00 0.00 0.00 0.00 0.00 0.00 0.00 0.00 0.00 0.00 0.00 0.00 0.00 0.00
0.00 0.00 0.00 0.00 0.00 0.00 0.00 0.00 0.00 0.00 0.00 0.00 0.00 0.00 0.00 0.00 0.00 0.00 0.00 0.00 0.00 0.00 0.00 0.00 0.00 0.00 0.00 0.00 0.00 0.00 0.00 0.00 0.00 0.00 0.00 0.00 0.00 0.00 0.01 0.00 0.00 0.00 0.00 0.00
0.00 0.00 0.00 0.00 0.00 0.00 0.00 0.00 0.00 0.00 0.00 0.00 0.00 0.00 0.00 0.00 0.00 0.00 0.00 0.00 0.00 0.00 0.00 0.00 0.00 0.00 0.00 0.00 0.00 0.00 0.00 0.00 0.00 0.00 0.00 0.00 0.00 0.00 0.00 0.00 0.00 0.00 0.00 0.00
0.00 0.00 0.00 0.00 0.00 0.00 0.00 0.00 0.00 0.00 0.00 0.00 0.00 0.00 0.00 0.00 0.00 0.00 0.00 0.00 0.00 0.00 0.00 0.00 0.00 0.00 0.00 0.00 0.00 0.00 0.00 0.00 0.00 0.00 0.00 0.00 0.00 0.00 0.00 0.00 0.00 0.00 0.00 0.00
0.00 0.00 0.00 0.00 0.00 0.00 0.00 0.00 0.00 0.00 0.00 0.00 0.00 0.00 0.00 0.00 0.00 0.00 0.00 0.00 0.00 0.00 0.00 0.00 0.00 0.00 0.00 0.00 0.00 0.00 0.00 0.00 0.00 0.00 0.00 0.00 0.00 0.00 0.00 0.00 0.00 0.00 0.00 0.00
0.00 0.00 0.00 0.00 0.00 0.00 0.00 0.00 0.00 0.00 0.00 0.00 0.00 0.00 0.00 0.00 0.00 0.00 0.00 0.00 0.00 0.00 0.00 0.00 0.00 0.00 0.00 0.00 0.00 0.00 0.00 0.00 0.00 0.00 0.00 0.00 0.00 0.00 0.00 0.00 0.00 0.00 0.00 0.00
0.00 0.00 0.00 0.00 0.00 0.00 0.00 0.00 0.00 0.00 0.00 0.00 0.00 0.00 0.00 0.00 0.00 0.00 0.00 0.00 0.00 0.00 0.00 0.00 0.00 0.00 0.00 0.00 0.01 0.01 0.00 0.00 0.00 0.00 0.00 0.00 0.00 0.00 0.00 0.00 0.00 0.00 0.00 0.00
0.00 0.00 0.00 0.00 0.00 0.00 0.00 0.00 0.00 0.00 0.00 0.00 0.00 0.00 0.00 0.00 0.00 0.00 0.00 0.00 0.00 0.00 0.00 0.00 0.00 0.00 0.00 0.00 0.02 0.02 0.00 0.00 0.00 0.00 0.00 0.00 0.00 0.00 0.00 0.00 0.00 0.00 0.00 0.00
0.00 0.00 0.00 0.00 0.00 0.00 0.00 0.00 0.00 0.00 0.00 0.00 0.00 0.00 0.00 0.00 0.00 0.00 0.00 0.00 0.00 0.00 0.00 0.00 0.00 0.00 0.00 0.00 0.02 0.01 0.00 0.00 0.00 0.00 0.00 0.00 0.00 0.00 0.00 0.00 0.00 0.00 0.00 0.00
0.00 0.00 0.00 0.00 0.00 0.00 0.00 0.00 0.00 0.00 0.00 0.00 0.00 0.00 0.00 0.00 0.00 0.00 0.00 0.00 0.00 0.00 0.00 0.00 0.00 0.00 0.00 0.01 0.01 0.00 0.00 0.00 0.00 0.00 0.00 0.00 0.00 0.00 0.00 0.00 0.00 0.00 0.00 0.00
0.00 0.00 0.00 0.00 0.00 0.00 0.00 0.00 0.00 0.00 0.00 0.00 0.00 0.00 0.00 0.00 0.00 0.00 0.00 0.00 0.00 0.00 0.00 0.00 0.00 0.00 0.00 0.01 0.00 0.00 0.00 0.00 0.00 0.00 0.00 0.00 0.00 0.00 0.00 0.00 0.00 0.00 0.00 0.00
MSLP
1007.27 1007.90 1007.84 1007.71 1008.04 1007.81 1007.75 1007.72 1008.43 1009.15 1009.52 1010.36 1011.87 1012.28 1012.35 1011.82 1011.79 1011.40 1011.35 1011.22 1011.96 1012.40 1012.67 1011.94 1011.19 1010.49 1010.27 1010.18 1009.69 1009.50 1009.30 1009.15 1008.91 1008.99 1009.11 1008.89 1009.94 1010.06 1010.96 1010.24 1011.10 1010.70 1009.73 1008.31
1007.81 1007.54 1006.51 1006.86 1006.63 1007.10 1006.92 1007.50 1008.49 1009.13 1009.48 1010.69 1012.20 1012.85 1013.00 1012.37 1012.49 1012.33 1011.45 1011.99 1012.82 1012.81 1012.19 1012.04 1011.09 1010.86 1010.90 1011.55 1011.41 1010.61 1010.66 1010.20 1010.67 1010.60 1010.24 1009.72 1009.64 1006.60 1009.05 1009.22 1008.02 1008.84 1008.18 1008.91
1007.53 1006.48 1005.94 1006.14 1006.30 1006.39 1006.73 1006.87 1007.80 1008.88 1009.92 1011.30 1012.20 1013.52 1013.71 1013.33 1012.55 1011.89 1011.39 1011.52 1013.76 1014.80 1013.91 1012.21 1012.03 1011.89 1011.66 1011.86 1011.99 1011.78 1011.21 1011.14 1011.03 1011.18 1011.40 1010.76 1010.11 1009.69 1009.99 1009.15 1009.41 1009.32 1008.81 1008.23
1006.92 1006.04 1005.73 1005.59 1005.75 1006.16 1006.47 1006.75 1007.23 1008.91 1010.30 1011.36 1011.75 1014.13 1014.59 1014.47 1013.85 1013.11 1012.80 1013.68 1015.28 1015.73 1014.72 1013.16 1013.26 1013.04 1012.50 1012.56 1012.68 1012.41 1012.18 1011.69 1011.33 1011.20 1011.07 1011.14 1010.96 1010.46 1009.63 1009.16 1009.11 1009.07 1009.21 1008.83
1006.64 1005.82 1005.54 1005.31 1005.51 1005.90 1006.41 1006.72 1007.74 1008.69 1010.32 1011.53 1012.57 1013.55 1015.43 1015.14 1015.26 1014.84 1014.43 1014.67 1015.82 1016.07 1014.85 1013.81 1013.65 1013.45 1013.05 1012.99 1012.90 1012.56 1012.27 1011.98 1011.53 1011.15 1011.02 1010.98 1010.78 1010.60 1010.06 1009.68 1009.44 1009.14 1008.93 1008.84
1006.74 1005.78 1005.35 1005.14 1005.42 1005.94 1006.40 1007.33 1008.56 1010.07 1011.43 1012.82 1013.56 1014.01 1015.20 1015.35 1015.29 1015.32 1015.28 1015.37 1015.84 1015.72 1014.61 1014.62 1014.21 1013.74 1013.26 1013.16 1013.22 1013.05 1012.74 1012.43 1011.82 1011.26 1010.93 1010.79 1010.90 1011.04 1010.68 1010.26 1010.03 1009.76 1009.06 1008.47
1007.28 1006.40 1005.59 1005.23 1005.73 1006.35 1007.19 1008.64 1010.45 1011.77 1013.07 1014.11 1014.03 1014.40 1015.21 1015.00 1014.98 1015.20 1015.24 1015.28 1015.62 1015.42 1015.32 1015.16 1014.74 1014.03 1013.59 1013.86 1013.63 1013.31 1013.12 1012.72 1012.19 1011.70 1011.22 1010.83 1010.68 1010.52 1010.42 1010.21 1009.74 1009.27 1008.88 1008.21
1008.65 1007.62 1006.81 1006.15 1006.49 1007.31 1008.35 1009.52 1011.22 1012.92 1014.24 1014.58 1014.30 1015.11 1015.19 1015.10 1015.06 1014.76 1015.10 1015.49 1015.79 1016.06 1015.92 1015.44 1015.16 1014.62 1014.65 1014.50 1014.05 1013.73 1013.47 1012.96 1012.32 1011.76 1011.42 1010.86 1010.49 1010.24 1009.92 1009.53 1009.13 1008.85 1008.53 1007.99
1009.20 1008.68 1007.63 1007.03 1006.91 1007.55 1008.81 1010.20 1011.31 1013.04 1014.65 1015.24 1015.76 1015.67 1015.24 1015.32 1015.37 1015.44 1015.78 1015.98 1016.46 1016.50 1016.29 1015.91 1015.60 1015.33 1015.09 1014.85 1014.38 1014.06 1013.57 1013.00 1012.49 1012.21 1011.77 1011.22 1010.81 1010.18 1009.58 1008.97 1008.59 1008.36 1007.72 1007.54
1010.08 1009.79 1008.94 1008.13 1007.76 1008.05 1008.78 1010.34 1011.78 1013.54 1015.57 1016.53 1016.54 1016.46 1016.47 1016.04 1016.08 1016.27 1016.39 1016.84 1016.99 1016.77 1016.58 1016.44 1016.10 1015.87 1015.47 1014.81 1014.38 1013.91 1013.57 1013.27 1012.76 1012.32 1011.83 1011.39 1011.01 1010.38 1009.72 1009.04 1008.60 1008.15 1007.53 1007.21
1010.77 1010.94 1010.50 1009.46 1009.82 1010.01 1010.09 1011.10 1012.88 1014.55 1015.94 1016.98 1017.52 1017.69 1017.06 1016.73 1016.70 1017.12 1017.36 1017.50 1017.40 1017.35 1017.03 1016.68 1016.28 1015.85 1015.56 1015.12 1014.61 1014.34 1013.91 1013.56 1013.11 1012.65 1012.10 1011.64 1011.06 1010.39 1009.85 1009.40 1008.83 1008.15 1007.70 1007.22
1012.06 1012.62 1012.49 1011.70 1010.76 1010.83 1010.83 1011.91 1013.26 1015.11 1016.55 1017.38 1017.91 1018.45 1017.84 1017.72 1017.75 1017.99 1018.09 1018.03 1017.81 1017.51 1017.19 1016.82 1016.50 1016.19 1015.77 1015.37 1014.89 1014.57 1014.32 1013.98 1013.50 1012.87 1012.37 1011.83 1011.21 1010.60 1009.93 1009.20 1008.51 1008.06 1007.58 1007.11
1012.69 1014.08 1013.94 1012.92 1012.32 1011.81 1012.02 1012.57 1013.32 1014.92 1016.06 1017.97 1018.62 1018.99 1018.48 1018.67 1018.69 1018.79 1018.60 1018.30 1018.05 1017.62 1017.23 1016.86 1016.56 1016.19 1015.65 1015.54 1015.26 1015.07 1014.50 1014.11 1013.59 1013.01 1012.55 1011.98 1011.37 1010.73 1010.05 1009.37 1008.66 1007.92 1007.89 1008.20
1013.05 1014.90 1015.12 1014.80 1014.47 1014.03 1013.87 1013.82 1014.06 1015.05 1016.77 1018.20 1018.93 1019.26 1019.39 1019.41 1019.35 1019.23 1019.08 1018.76 1018.37 1017.85 1017.35 1016.95 1016.63 1016.23 1015.89 1015.92 1015.65 1015.17 1014.65 1014.27 1013.92 1013.43 1012.94 1012.33 1011.70 1010.85 1009.99 1009.44 1009.14 1009.09 1009.16 1009.30
1014.16 1015.81 1015.76 1015.39 1015.03 1014.87 1015.18 1015.44 1015.39 1016.11 1017.08 1018.08 1019.29 1019.63 1019.80 1019.76 1019.69 1019.51 1019.25 1018.82 1018.44 1017.97 1017.54 1017.13 1016.76 1016.29 1016.14 1015.70 1015.37 1015.18 1014.95 1014.69 1014.25 1013.87 1013.32 1012.95 1012.19 1010.85 1009.98 1010.11 1010.52 1010.56 1010.42 1010.63
1015.35 1016.37 1016.38 1016.37 1015.89 1015.74 1016.24 1016.67 1016.89 1017.56 1018.31 1019.09 1019.53 1020.00 1020.04 1019.77 1019.67 1019.66 1019.48 1019.16 1018.79 1018.38 1017.82 1017.31 1016.79 1016.36 1016.06 1016.17 1015.85 1015.59 1015.45 1015.17 1014.81 1014.48 1014.08 1013.60 1012.90 1011.95 1011.72 1011.63 1011.79 1012.22 1012.28 1012.16
1016.28 1017.11 1017.53 1017.38 1016.96 1016.62 1017.17 1017.87 1018.06 1018.73 1019.07 1019.50 1020.17 1020.49 1020.41 1020.30 1020.11 1019.88 1019.73 1019.41 1019.07 1018.67 1018.19 1017.71 1017.26 1016.93 1016.62 1016.53 1016.44 1016.32 1016.12 1015.78 1015.38 1015.14 1014.89 1014.18 1013.73 1013.15 1012.85 1012.87 1012.78 1013.07 1013.32 1013.64
1016.69 1017.70 1018.26 1018.46 1017.58 1017.96 1018.39 1018.03 1018.36 1019.10 1019.73 1019.93 1020.28 1020.49 1020.50 1020.33 1020.01 1019.75 1019.66 1019.58 1019.42 1019.09 1018.65 1018.26 1017.79 1017.41 1017.08 1016.82 1016.60 1016.53 1016.56 1016.46 1016.14 1015.57 1015.29 1014.86 1014.43 1014.04 1013.51 1013.50 1014.00 1014.14 1014.26 1014.26
1016.45 1017.97 1019.17 1019.33 1019.38 1019.24 1018.80 1018.67 1018.62 1018.84 1019.99 1020.22 1020.44 1020.48 1020.46 1020.38 1020.26 1020.07 1019.72 1019.71 1019.54 1019.36 1018.92 1018.42 1018.08 1017.72 1017.48 1017.29 1017.10 1016.97 1016.73 1016.78 1016.73 1016.31 1015.88 1015.65 1015.34 1015.05 1014.68 1014.54 1014.90 1015.27 1015.12 1015.18
1017.29 1018.06 1019.09 1019.93 1020.02 1019.73 1019.14 1018.57 1018.52 1018.79 1019.98 1020.34 1020.49 1020.65 1020.73 1020.77 1020.99 1020.74 1020.11 1019.89 1019.59 1019.29 1018.89 1018.55 1018.20 1017.88 1017.69 1017.40 1017.13 1017.22 1017.43 1017.46 1017.39 1017.18 1016.76 1016.63 1016.35 1016.13 1015.76 1015.56 1015.69 1015.89 1015.93 1016.07
1018.09 1019.21 1020.03 1020.55 1020.52 1020.11 1019.61 1019.13 1018.79 1019.78 1021.14 1020.62 1020.75 1020.91 1021.12 1021.46 1021.31 1020.80 1020.64 1020.37 1020.06 1019.70 1019.33 1018.90 1018.56 1018.36 1018.04 1017.63 1017.43 1017.77 1018.01 1018.05 1018.17 1017.93 1017.44 1017.46 1017.28 1017.02 1016.87 1016.66 1016.70 1016.73 1016.79 1016.84
1018.58 1019.69 1020.62 1021.14 1021.23 1020.99 1020.14 1019.74 1020.21 1021.22 1021.08 1021.15 1021.23 1021.41 1021.58 1021.70 1021.48 1021.28 1021.11 1020.80 1020.29 1019.87 1019.39 1019.17 1019.04 1018.65 1018.04 1017.73 1017.62 1017.94 1018.19 1018.44 1018.66 1018.44 1018.33 1018.32 1018.26 1018.05 1017.83 1017.61 1017.41 1017.27 1017.40 1017.55
1018.91 1019.34 1020.24 1021.50 1021.49 1021.32 1021.15 1021.04 1021.22 1021.39 1021.59 1021.74 1021.81 1021.99 1022.03 1022.13 1022.09 1021.88 1021.45 1020.93 1020.43 1020.13 1019.89 1019.53 1019.29 1018.82 1018.18 1017.86 1017.66 1018.08 1018.50 1018.85 1019.07 1018.90 1019.16 1019.06 1018.96 1018.79 1018.67 1018.52 1018.48 1018.43 1018.38 1018.33
1018.99 1019.32 1020.49 1021.54 1021.89 1021.65 1021.56 1021.62 1021.71 1021.88 1022.13 1022.32 1022.47 1022.61 1022.57 1022.65 1022.43 1022.12 1021.69 1021.26 1020.75 1020.23 1019.93 1019.66 1019.30 1018.87 1018.46 1018.02 1017.77 1018.24 1018.80 1019.14 1019.35 1019.57 1019.76 1019.81 1019.64 1019.60 1019.57 1019.43 1019.44 1019.38 1019.19 1019.03
1019.63 1019.77 1021.04 1022.02 1022.08 1022.06 1022.01 1022.09 1022.37 1022.57 1022.70 1022.80 1022.92 1023.04 1023.02 1022.94 1022.76 1022.39 1021.88 1021.33 1020.74 1020.19 1019.92 1019.57 1019.38 1019.03 1018.84 1018.42 1018.43 1018.83 1019.10 1019.43 1019.73 1020.11 1020.27 1020.30 1020.20 1020.27 1020.34 1020.43 1020.32 1020.00 1019.77 1019.54
1020.15 1020.48 1021.07 1021.35 1021.62 1022.19 1022.52 1022.64 1022.79 1022.94 1023.25 1023.39 1023.41 1023.40 1023.37 1023.21 1022.92 1022.44 1021.93 1021.39 1020.82 1020.33 1020.02 1019.65 1019.39 1019.13 1018.81 1018.37 1018.82 1019.20 1019.38 1019.67 1020.04 1020.40 1020.63 1020.69 1020.64 1020.66 1020.72 1020.73 1020.53 1020.22 1020.01 1019.71
Thickness
5786 5767 5758 5771 5766 5771 5770 5768 5751 5755 5767 5751 5735 5735 5742 5751 5749 5756 5755 5755 5747 5742 5742 5751 5756 5761 5759 5755 5757 5760 5756 5757 5751 5743 5735 5734 5715 5702 5693 5699 5687 5691 5697 5682
5765 5758 5786 5785 5785 5771 5774 5762 5752 5759 5767 5750 5733 5729 5736 5748 5744 5747 5751 5748 5741 5742 5746 5749 5758 5758 5754 5742 5737 5744 5737 5738 5728 5720 5715 5713 5705 5709 5700 5701 5700 5698 5703 5694
5759 5781 5799 5790 5780 5773 5770 5769 5758 5750 5756 5747 5733 5718 5721 5740 5748 5756 5757 5756 5735 5722 5730 5748 5747 5746 5745 5738 5732 5729 5730 5724 5718 5709 5697 5698 5701 5698 5687 5688 5680 5681 5683 5687
5771 5793 5791 5784 5780 5775 5759 5781 5778 5750 5737 5719 5745 5691 5702 5718 5728 5739 5738 5727 5709 5710 5718 5734 5730 5730 5734 5728 5722 5716 5712 5711 5708 5702 5695 5686 5681 5681 5682 5682 5679 5676 5674 5676
5769 5786 5783 5779 5782 5786 5766 5782 5769 5766 5738 5729 5724 5701 5696 5706 5702 5710 5718 5714 5705 5703 5714 5720 5720 5722 5722 5714 5709 5707 5704 5700 5698 5692 5685 5680 5674 5668 5670 5669 5670 5670 5672 5669
5776 5798 5795 5791 5792 5785 5787 5774 5755 5740 5725 5698 5710 5701 5689 5692 5696 5702 5706 5706 5703 5703 5712 5710 5713 5714 5709 5702 5695 5692 5689 5687 5685 5684 5680 5672 5666 5659 5657 5655 5651 5652 5658 5664
5764 5774 5792 5800 5780 5780 5768 5743 5702 5703 5685 5690 5708 5694 5688 5704 5707 5702 5701 5703 5700 5699 5698 5697 5698 5700 5699 5688 5684 5680 5674 5674 5673 5670 5666 5663 5658 5655 5650 5647 5647 5644 5642 5647
5731 5733 5769 5787 5779 5764 5756 5743 5703 5699 5682 5687 5705 5681 5683 5700 5702 5705 5700 5694 5689 5683 5679 5683 5682 5683 5680 5677 5673 5669 5665 5664 5664 5662 5659 5655 5650 5646 5643 5641 5641 5638 5634 5634
5733 5741 5774 5778 5784 5774 5757 5727 5740 5702 5693 5684 5678 5689 5699 5696 5693 5690 5687 5683 5674 5671 5668 5668 5666 5663 5664 5667 5666 5661 5659 5657 5653 5649 5647 5646 5641 5637 5637 5636 5633 5628 5629 5624
5747 5733 5760 5767 5777 5773 5759 5754 5718 5697 5677 5672 5670 5675 5664 5682 5683 5681 5676 5668 5664 5661 5659 5654 5652 5650 5649 5650 5652 5653 5650 5645 5642 5639 5636 5633 5629 5627 5624 5623 5621 5619 5619 5617
5743 5731 5740 5754 5742 5736 5735 5727 5708 5695 5681 5661 5650 5654 5682 5684 5682 5669 5660 5656 5654 5651 5648 5646 5644 5643 5638 5636 5636 5633 5631 5628 5626 5624 5621 5618 5615 5613 5610 5605 5602 5603 5604 5606
5734 5713 5707 5734 5750 5745 5748 5731 5710 5683 5688 5663 5652 5648 5676 5670 5665 5660 5655 5652 5650 5648 5645 5642 5637 5631 5627 5625 5623 5619 5615 5610 5607 5606 5603 5600 5597 5595 5594 5594 5594 5590 5588 5589
5735 5698 5685 5707 5719 5732 5725 5729 5719 5693 5678 5662 5647 5643 5667 5660 5654 5651 5649 5648 5645 5643 5640 5636 5631 5626 5625 5621 5615 5607 5603 5598 5596 5593 5589 5586 5583 5582 5582 5581 5581 5580 5575 5566
5729 5695 5688 5677 5693 5707 5705 5709 5712 5696 5666 5658 5650 5646 5649 5647 5645 5644 5642 5640 5639 5637 5634 5630 5626 5622 5618 5610 5602 5598 5593 5588 5583 5581 5578 5576 5572 5572 5572 5571 5567 5560 5553 5547
5718 5692 5701 5703 5703 5707 5698 5694 5695 5685 5679 5661 5649 5643 5642 5642 5639 5638 5638 5637 5634 5631 5627 5623 5618 5613 5607 5602 5597 5590 5582 5577 5573 5569 5566 5561 5560 5564 5563 5555 5545 5539 5534 5527
5705 5689 5696 5696 5697 5697 5683 5682 5680 5674 5667 5654 5647 5635 5639 5644 5640 5633 5626 5622 5619 5615 5614 5613 5610 5606 5598 5588 5584 5577 5570 5566 5561 5557 5552 5548 5547 5549 5541 5533 5525 5516 5512 5509
5695 5684 5674 5680 5683 5686 5664 5667 5663 5657 5654 5650 5630 5631 5633 5629 5625 5623 5617 5611 5607 5605 5602 5597 5592 5586 5581 5575 5568 5562 5557 5553 5549 5543 5538 5539 5533 5532 5529 5519 5513 5505 5498 5492
5688 5677 5666 5666 5672 5652 5665 5675 5669 5654 5648 5643 5637 5634 5631 5628 5625 5618 5611 5603 5596 5592 5588 5583 5578 5573 5571 5565 5559 5553 5547 5541 5536 5535 5532 5528 5524 5520 5519 5513 5501 5494 5489 5484
5693 5670 5660 5656 5646 5661 5664 5664 5665 5659 5641 5641 5634 5632 5630 5623 5619 5611 5610 5600 5592 5584 5578 5573 5569 5565 5560 5554 5550 5545 5541 5532 5527 5526 5523 5519 5513 5509 5507 5503 5493 5485 5481 5474
5684 5674 5663 5653 5656 5639 5656 5666 5669 5659 5630 5640 5635 5626 5620 5614 5595 5593 5598 5588 5581 5574 5568 5564 5560 5557 5552 5549 5545 5537 5531 5523 5519 5516 5512 5509 5506 5500 5498 5493 5487 5481 5475 5468
5663 5658 5656 5640 5643 5646 5659 5660 5661 5636 5622 5633 5628 5622 5615 5601 5591 5590 5579 5572 5566 5562 5556 5553 5549 5545 5541 5541 5535 5529 5522 5515 5510 5507 5506 5501 5496 5492 5488 5484 5478 5472 5466 5460
5664 5650 5644 5638 5639 5639 5652 5655 5644 5629 5630 5627 5622 5614 5605 5595 5586 5578 5570 5561 5555 5548 5544 5540 5535 5534 5535 5534 5530 5525 5517 5511 5505 5503 5498 5494 5488 5485 5480 5475 5471 5467 5460 5453
5660 5661 5646 5643 5636 5641 5641 5639 5638 5630 5624 5620 5613 5604 5596 5587 5576 5566 5558 5550 5542 5533 5528 5526 5525 5525 5529 5530 5528 5521 5513 5508 5503 5499 5493 5489 5483 5479 5473 5468 5461 5456 5451 5445
5670 5664 5644 5641 5640 5640 5639 5636 5632 5624 5617 5610 5604 5596 5587 5574 5566 5558 5548 5537 5527 5523 5518 5514 5516 5519 5526 5527 5526 5519 5513 5507 5502 5495 5488 5483 5478 5472 5466 5460 5454 5448 5444 5441
5659 5660 5642 5632 5637 5634 5633 5629 5622 5615 5610 5604 5596 5586 5578 5568 5558 5549 5540 5531 5521 5512 5506 5509 5511 5515 5517 5523 5521 5515 5512 5507 5501 5492 5487 5480 5474 5467 5460 5452 5448 5447 5445 5443
5651 5647 5640 5632 5635 5627 5624 5621 5616 5609 5603 5598 5591 5582 5571 5563 5553 5546 5537 5528 5514 5501 5497 5503 5509 5514 5518 5524 5520 5516 5513 5508 5501 5494 5486 5479 5472 5465 5458 5453 5450 5450 5447 5445